Weather in Bolshaya Kamenka

Russia / Samara Oblast     53°39′57″N   50°30′45″E
temp.,
°C
wind,
m/s
gust,
m/s
humid.,
%
clouds,
%
prec.,
mm/h
press.,
hPa
HPBL,
m
25 february, thu
thu2501:00−28nnw239711 0.0 103519
04:00−28wnw229752 0.0 103519
07:00−30wsw1110033 0.0 103419
10:00−25sse239450 0.0 1033101
13:00−20sse5892100 0.0 1031284
16:00−18s71190100 0.0 1027421
19:00−18s71396100 1.2 1024538
22:00−17s61196100 2.6 1022608
26 february, fri
fri2601:00−16sse61295100 0.9 1019577
04:00−15sse61194100 1.4 1018510
07:00−15se61194100 0.3 1016402
10:00−13se61093100 0.5 1017452
13:00−11se6991100 0.1 1016562
16:00−10se6991100 0.2 1015570
19:00−12se61293100 0.1 1012414
22:00−11sse81494100 0.6 1009421
27 february, sat
sat2701:00−9sse81595100 4.0 1003472
04:00−6sse5996100 7.9 1000281
07:00−2s2599100 0.3 998176
10:000wsw5109799 0.4 998499
13:00+1w5910097 0.2 998470
16:000wsw4810097 0.3 999415
19:000sw379796 0.1 999343
22:00−2ssw369898 0.3 999147
28 february, sun
sun2801:00−3ssw359798 0.2 999121
04:00−3sw239899 0.5 100076
07:00−3wsw1298100 0.6 100126
10:00−5nnw469699 1.2 1003225
13:00−7nnw579497 0.2 1005323
16:00−8nnw589298 0.4 1006425
19:00−12nnw5109499 0.1 1009333
22:00−13nnw499499 0.1 1011304
1 march, mon
mon101:00−13n51094100 0.1 1013353
04:00−17nnw4996100 0.1 1015251
07:00−19nnw4109684 0.0 1017240
10:00−19nnw599371 0.0 1019286
13:00−16nnw589268 0.0 1021345
16:00−15nnw479180 0.0 1021401
19:00−19nnw349765 0.0 102365
22:00−21nw229939 0.0 102420